Flag for Morocco Weather past 2 weeks in Tangier, Morocco

Now
77 °F

Scattered clouds.


Feels Like: 79 °F
Forecast: 69 / 83 °F
Wind: 9 mph from West

Location: Tanger Aerodrome

Current Time: Jul 28, 2015 at 9:54:09 AM

Latest Report: Jul 28, 2015 at 9:00 AM


Visibility: 3 mi

Pressure: 29.92 "Hg

Humidity: 74%

Dew point: 68 °F

Location of TangierLocation

Historic Weather in Tangier — Graph

°F

Tangier temperature yesterday

Maximum temperature yesterday: 84 °F (at 3:30 PM)
Minimum temperature yesterday: 66 °F (at 6:30 AM)
Average temperature yesterday: 76 °F

Past Weeks' High & Low Weather Summary

 TemperatureHumidityPressure
High99 °F (Jul 16, 3:30 PM)94% (Jul 18, 6:30 AM)30.07 "Hg (Jul 18, 6:30 AM)
Low64 °F (Jul 19, 4:30 AM)20% (Jul 16, 5:30 PM)29.83 "Hg (Jul 16, 3:30 PM)
Average78 °F64%29.97 "Hg
* Reported Jul 13 8:00 AM — Jul 28 9:00 AM, Tangier, Weather by CustomWeather, © 2015

Note: Actual official high and low records may vary slightly from our data, if they occured in-between our weather recording intervals... More about our weather records

Advertising

Tangier weather history for previous 24 hours

 ConditionsComfort  
Time TempWeatherWind HumidityBarometerVisibility
9:00 AM
Tue, Jul 28
77 °FScattered clouds.9 mph74%29.92 "Hg3 mi
8:30 AM75 °FScattered clouds.8 mph78%29.92 "Hg3 mi
8:00 AM73 °FSunny.2 mph78%29.92 "Hg10 mi
7:30 AM68 °FSunny.No wind83%29.89 "Hg10 mi
7:00 AM64 °FSunny.2 mph83%29.89 "Hg10 mi
6:30 AM64 °FSunny.No wind78%29.89 "Hg10 mi
6:00 AM64 °FClear.No wind83%29.89 "Hg10 mi
5:30 AM64 °FClear.No wind78%29.89 "Hg10 mi
5:00 AM64 °FClear.No wind78%29.89 "Hg10 mi
4:30 AM66 °FClear.2 mph78%29.89 "Hg10 mi
4:00 AM70 °FPassing clouds.3 mph78%29.89 "HgN/A
3:30 AM68 °FClear.2 mph73%29.89 "Hg10 mi
3:00 AM68 °FClear.2 mph73%29.89 "Hg10 mi
2:30 AM68 °FClear.2 mph73%29.89 "Hg10 mi
2:00 AM70 °FClear.3 mph73%29.89 "Hg10 mi
1:30 AM68 °FClear.1 mph73%29.92 "Hg10 mi
1:00 AM70 °FClear.3 mph69%29.92 "Hg10 mi
12:30 AM70 °FClear.2 mph69%29.92 "Hg10 mi
12:00 AM70 °FClear.2 mph69%29.92 "Hg10 mi
11:30 PM
Mon, Jul 27
70 °FClear.1 mph73%29.92 "Hg10 mi
11:00 PM70 °FClear.2 mph73%29.92 "Hg10 mi
10:30 PM73 °FClear.No wind74%29.92 "Hg10 mi
10:00 PM73 °FPassing clouds.5 mph74%29.89 "HgN/A
9:30 PM75 °FClear.2 mph69%29.89 "Hg10 mi
9:00 PM75 °FClear.6 mph74%29.89 "Hg10 mi
8:30 PM77 °FSunny.8 mph69%29.89 "Hg10 mi
8:00 PM79 °FPassing clouds.7 mph65%29.89 "HgN/A
7:30 PM79 °FSunny.9 mph65%29.89 "Hg10 mi
7:00 PM81 °FPassing clouds.9 mph58%29.89 "HgN/A
6:30 PM82 °FSunny.10 mph58%29.89 "Hg10 mi
6:00 PM82 °FSunny.10 mph58%29.89 "Hg10 mi
5:30 PM82 °FSunny.9 mph58%29.89 "Hg10 mi
5:00 PM84 °FSunny.12 mph55%29.92 "Hg10 mi
4:30 PM84 °FSunny.10 mph51%29.92 "Hg10 mi
4:00 PM84 °FPassing clouds.9 mph43%29.92 "HgN/A
3:30 PM84 °FPassing clouds.9 mph51%29.92 "HgN/A
3:00 PM82 °FSunny.9 mph58%29.95 "Hg10 mi
2:30 PM82 °FPassing clouds.10 mph58%29.95 "HgN/A
2:00 PM82 °FSunny.12 mph58%29.95 "Hg10 mi
1:30 PM82 °FWarm.10 mph58%29.95 "HgN/A
1:00 PM81 °FPassing clouds.10 mph66%29.98 "HgN/A
12:30 PM81 °FPassing clouds.9 mph66%29.98 "HgN/A
12:00 PM79 °FScattered clouds.9 mph70%29.98 "Hg5 mi
11:30 AM79 °FScattered clouds.9 mph70%29.98 "Hg5 mi
11:00 AM77 °FScattered clouds.9 mph74%29.98 "Hg4 mi
10:30 AM73 °FFog.10 mph83%29.98 "Hg1 mi
10:00 AM73 °FFog.13 mph83%29.98 "Hg1 mi
9:30 AM75 °FFog.13 mph78%29.98 "Hg1 mi
9:00 AM77 °FPassing clouds.9 mph69%29.98 "HgN/A
Weather by CustomWeather, © 2015

See weather overviewHow to use our weather pages